Terremoto di magnitudo mb 5.8 del 19-05-2011 ore 20:15:22 (UTC) in zona: Turkey

Un terremoto di magnitudo mb 5.8 è avvenuto nella zona: Turkey, il

  • 19-05-2011 20:15:22 (UTC)
  • 19-05-2011 22:15:22 (UTC +02:00) ora italiana
  • 19-05-2011 23:15:22 (UTC +03:00) orario locale nella zona del terremoto (Europe/Istanbul)

con coordinate geografiche (lat, lon) 39.1500, 29.1000 ad una profondità di 7 km.

Il terremoto è stato localizzato da: CSEM.

Ricerca terremoti: Qualsiasi nel raggio di 30 km

I valori delle coordinate ipocentrali e della magnitudo rappresentano la migliore stima con i dati a disposizione. Eventuali nuovi dati o analisi potrebbero far variare tali stime.

Visualizza la localizzazione con

Comuni entro 20 km dall'epicentro

Nessun comune italiano entro 20 km dall'epicentro.

Città più vicine con almeno 50000 abitanti

Nessun comune italiano entro 100 km dall'epicentro con almeno 50000 abitanti.

Sismicità recente e storica
Pericolosità sismica
Mappe di scuotimento
Mappa del risentimento sismico
Cronologia delle localizzazioni calcolate
Tipo Magnitudo Tempo origine (UTC) Latitudine Longitudine Profondità (km) Ora pubblicazione (UTC) Autore ID Localizzazione
Bollettino
Rev1000
mb 5.8 2011-05-19
20:15:22
39.15 29.1 7 2013-01-05
23:50:07
CSEM 1215789
Localizzazione e magnitudo preferite finora.
Parametri della localizzazione preferita

Localizzazione

Campo Valore
Tempo (UTC) 2011-05-19 20:15:22
Latitudine 39.1500
Longitudine 29.1000
Profondità (km) 7 (from location)
Metodo di valutazione manual
Stato della valutazione reviewed
Versione 1000 -> CSEM
Tipo di evento earthquake
ID localizzazione 1215789

Incertezze

Campo Valore
Tipo di incertezza
Semi-asse maggiore dell'ellisse di confidenza (metri)
Semi-asse minore dell'ellisse di confidenza (metri)
azimuth dell’asse maggiore dell’ellisse di confidenza (gradi)
Regione di confidenza sul piano orizzontale espressa mediante singolo valore di incertezza (metri)
Livello di confidenza dell'incertezza (%) 68

Qualità

Campo Valore
Maggiore gap azimutale nella distribuzione delle stazioni all'epicentro
Numero di fasi associato indipendentemente se utilizzate nella localizzazione (determinazione dell'Origin) 104
Numero di fasi 85
Scarto quadratico medio dei residui di tempo risultanti dal calcolo del tempo origine (Origin) della localizzazione (sec)
Distanza epicentrale della stazione piu' vicina (gradi) 0.00000
Distanza epicentrale della stazione piu’ lontana (gradi) 0.00000
Numero di stazioni in cui l’evento e’ stato osservato 101
Numero di stazioni usate nel calcolo dell'Origin 85
Parametri della magnitudo

mb:5.8

Campo Valore
Valore 5.8
Incertezza
Num. stazioni usate
Tipo di magnitudo mb
Localizzazione di riferimento 1215789
Agenzia INGV
Autore CSEM
Tempo di creazione (UTC) 2013-01-05 23:50:07
Tempi di arrivo
SCNL Time Uncertainty Polarity Evaluation_mode Phase Azimuth Distance Takeoff_angle Residual Weight
IV.MRGE.HHN. 2011-05-19T20:19:31.36 0.6 undecidable manual P 0 0 0
GU.RRL.HHE. 2011-05-19T20:19:28.99 0.3 undecidable manual P 0 0 0
GU.PZZ.HHZ. 2011-05-19T20:19:24.20 0.6 undecidable manual P 0 0 0
IV.DOI.HHE. 2011-05-19T20:19:23.14 0.3 undecidable manual P 0 0 0
GU.RSP.HHN. 2011-05-19T20:19:23.01 0.6 undecidable manual P 0 0 0
GU.TRAV.HHN. 2011-05-19T20:19:22.68 0.3 undecidable manual P 0 0 0
CH.FUSIO.HHZ. 2011-05-19T20:19:20.81 0.6 undecidable manual P 0 0 0
IV.MONC.HHZ. 2011-05-19T20:19:20.11 0.6 undecidable manual P 0 0 0
IV.IMI.HHE. 2011-05-19T20:19:16.57 0.6 undecidable manual P 0 0 0
CH.PLONS.HHE. 2011-05-19T20:19:15.57 0.3 undecidable manual P 0 0 0
IV.VARE.HHZ. 2011-05-19T20:19:14.08 0.6 undecidable manual P 0 0 0
GU.RORO.HHE. 2011-05-19T20:19:14.89 0.3 undecidable manual P 0 0 0
CH.MUGIO.HHE. 2011-05-19T20:19:13.26 10.0 undecidable manual Sn 0 0 0
IV.CTL8.EHZ. 2011-05-19T20:19:13.52 10.0 undecidable manual Sn 0 0 0
CH.DAVOX.HHE. 2011-05-19T20:19:12.31 0.6 undecidable manual P 0 0 0
IV.QLNO.HHE. 2011-05-19T20:19:12.46 0.6 undecidable manual P 0 0 0
GU.FINB.HHZ. 2011-05-19T20:19:12.37 0.3 undecidable manual P 0 0 0
GU.PCP.HHE. 2011-05-19T20:19:11.68 0.3 undecidable manual P 0 0 0
IV.CTL8.EHZ. 2011-05-19T20:19:07.42 10.0 undecidable manual P 0 0 0
CH.FUORN.HHZ. 2011-05-19T20:19:05.57 0.3 undecidable manual P 0 0 0
CH.BERNI.HHE. 2011-05-19T20:19:05.95 0.6 undecidable manual P 0 0 0
IV.BOB.HHZ. 2011-05-19T20:19:04.82 0.6 undecidable manual P 0 0 0
IV.BRMO.HHN. 2011-05-19T20:19:04.09 0.6 undecidable manual P 0 0 0
IV.MSSA.HHZ. 2011-05-19T20:19:03.18 0.3 undecidable manual P 0 0 0
IV.SBPO.HHN. 2011-05-19T20:19:02.90 0.6 undecidable manual P 0 0 0
IV.MABI.HHZ. 2011-05-19T20:19:00.08 0.6 undecidable manual P 0 0 0
IV.GROG.HHZ. 2011-05-19T20:18:59.90 0.3 undecidable manual P 0 0 0
IV.PLMA.HHE. 2011-05-19T20:18:59.10 0.6 undecidable manual P 0 0 0
IV.PRMA.HHZ. 2011-05-19T20:18:58.91 0.3 undecidable manual P 0 0 0
IV.ERBM.EHZ. 2011-05-19T20:18:58.17 0.6 undecidable manual P 0 0 0
IV.SALO.HHZ. 2011-05-19T20:18:58.05 0.6 undecidable manual P 0 0 0
IV.MAGA.HHE. 2011-05-19T20:18:57.76 0.3 undecidable manual P 0 0 0
MN.VLC.HHZ. 2011-05-19T20:18:56.46 0.6 undecidable manual P 0 0 0
GU.MAIM.HHZ. 2011-05-19T20:18:54.11 0.6 undecidable manual P 0 0 0
IV.BDI.HHE. 2011-05-19T20:18:54.00 0.3 undecidable manual P 0 0 0
IV.NOVE.EHN. 2011-05-19T20:18:54.84 0.3 undecidable manual P 0 0 0
IV.BLLA.EHE. 2011-05-19T20:18:52.90 10.0 undecidable manual P 0 0 0
IV.ROVR.HHE. 2011-05-19T20:18:52.66 0.3 undecidable manual P 0 0 0
IV.SASS.HHZ. 2011-05-19T20:18:48.76 0.6 undecidable manual P 0 0 0
NI.AGOR.HHE. 2011-05-19T20:18:48.24 10.0 undecidable manual P 0 0 0
IV.CASP.HHN. 2011-05-19T20:18:48.87 0.6 undecidable manual P 0 0 0
IV.TRIF.HHE. 2011-05-19T20:18:47.93 0.6 undecidable manual P 0 0 0
IV.FNVD.HHZ. 2011-05-19T20:18:47.94 0.6 undecidable manual P 0 0 0
IV.TEOL.HHZ. 2011-05-19T20:18:46.73 0.3 undecidable manual P 0 0 0
CH.MUGIO.HHE. 2011-05-19T20:18:45.65 10.0 undecidable manual P 0 0 0
IV.FROS.HHN. 2011-05-19T20:18:44.41 0.6 undecidable manual P 0 0 0
IV.CMPO.HHE. 2011-05-19T20:18:43.25 0.6 undecidable manual P 0 0 0
IV.STAL.HHZ. 2011-05-19T20:18:42.24 10.0 undecidable manual Sg 0 0 0
IV.ARCI.HHZ. 2011-05-19T20:18:41.36 10.0 undecidable manual P 0 0 0
IV.CRE.HHN. 2011-05-19T20:18:38.45 0.6 undecidable manual P 0 0 0
NI.PALA.HHN. 2011-05-19T20:18:37.47 10.0 undecidable manual P 0 0 0
IV.LATE.HHN. 2011-05-19T20:18:36.33 0.3 undecidable manual P 0 0 0
IV.BADI.EHE. 2011-05-19T20:18:35.92 0.3 undecidable manual P 0 0 0
IV.PARC.HHZ. 2011-05-19T20:18:35.46 0.6 undecidable manual P 0 0 0
IV.ATTE.HHN. 2011-05-19T20:18:32.21 0.3 undecidable manual P 0 0 0
IV.ATPC.HHZ. 2011-05-19T20:18:32.86 0.3 undecidable manual P 0 0 0
IV.SENI.EHE. 2011-05-19T20:18:31.11 10.0 undecidable manual P 0 0 0
IV.MURB.HHE. 2011-05-19T20:18:31.78 0.3 undecidable manual P 0 0 0
IV.PIEI.HHZ. 2011-05-19T20:18:31.48 0.6 undecidable manual P 0 0 0
IV.PESA.HHZ. 2011-05-19T20:18:30.19 0.3 undecidable manual P 0 0 0
IV.FSSB.HHE. 2011-05-19T20:18:29.06 0.6 undecidable manual P 0 0 0
IV.STAL.HHZ. 2011-05-19T20:18:29.05 10.0 undecidable manual P 0 0 0
IV.MA9.HHN. 2011-05-19T20:18:28.62 10.0 undecidable manual P 0 0 0
IV.RMP.HHZ. 2011-05-19T20:18:26.70 0.3 undecidable manual P 0 0 0
IV.SNTG.HHZ. 2011-05-19T20:18:26.65 0.6 undecidable manual P 0 0 0
IV.LNSS.HHE. 2011-05-19T20:18:24.89 0.6 undecidable manual P 0 0 0
IV.NRCA.HHE. 2011-05-19T20:18:24.20 0.3 undecidable manual P 0 0 0
MN.CLTB.HHE. 2011-05-19T20:18:23.90 0.3 undecidable manual P 0 0 0
MN.AQU.HHE. 2011-05-19T20:18:20.80 10.0 undecidable manual P 0 0 0
IV.GUAR.HHZ. 2011-05-19T20:18:20.57 10.0 undecidable manual P 0 0 0
IV.LAV9.HHZ. 2011-05-19T20:18:19.89 10.0 undecidable manual P 0 0 0
IV.USI.HHZ. 2011-05-19T20:18:19.82 0.6 undecidable manual P 0 0 0
IV.PTQR.HHE. 2011-05-19T20:18:19.70 0.6 undecidable manual P 0 0 0
IV.TERO.HHZ. 2011-05-19T20:18:18.67 0.6 undecidable manual P 0 0 0
IV.INTR.HHN. 2011-05-19T20:18:14.55 0.3 undecidable manual P 0 0 0
IV.T0104.HHN. 2011-05-19T20:18:13.02 10.0 undecidable manual P 0 0 0
IV.CERA.HHE. 2011-05-19T20:18:13.01 0.3 undecidable manual P 0 0 0
IV.RNI2.HHN. 2011-05-19T20:18:11.63 0.6 undecidable manual P 0 0 0
IV.RAFF.HHN. 2011-05-19T20:18:10.54 0.3 undecidable manual P 0 0 0
IV.VAGA.HHE. 2011-05-19T20:18:10.11 0.3 undecidable manual P 0 0 0
IV.TRIV.HHZ. 2011-05-19T20:18:07.55 0.6 undecidable manual P 0 0 0
IV.HMDC.HHZ. 2011-05-19T20:18:06.75 0.6 undecidable manual P 0 0 0
IV.FRES.HHN. 2011-05-19T20:18:06.62 0.6 undecidable manual P 0 0 0
IV.SACR.HHZ. 2011-05-19T20:18:05.43 0.6 undecidable manual P 0 0 0
IV.ECNV.HHE. 2011-05-19T20:18:04.45 0.6 undecidable manual P 0 0 0
IV.CIGN.HHZ. 2011-05-19T20:18:03.16 0.6 undecidable manual P 0 0 0
IV.PSB1.HHZ. 2011-05-19T20:18:03.93 0.6 undecidable manual P 0 0 0
IV.HAVL.HHZ. 2011-05-19T20:18:02.96 0.3 undecidable manual P 0 0 0
IV.NOV.HHZ. 2011-05-19T20:18:01.48 0.6 undecidable manual P 0 0 0
IV.IVPL.HHZ. 2011-05-19T20:18:01.58 0.3 undecidable manual P 0 0 0
IV.MMME.HHE. 2011-05-19T20:18:00.32 0.6 undecidable manual P 0 0 0
IV.MOCO.HHZ. 2011-05-19T20:18:00.99 0.6 undecidable manual P 0 0 0
IV.CAFE.HHZ. 2011-05-19T20:17:59.37 0.6 undecidable manual P 0 0 0
IV.SGTA.HHZ. 2011-05-19T20:17:58.22 0.6 undecidable manual P 0 0 0
IV.MPNC.HHN. 2011-05-19T20:17:58.51 0.6 undecidable manual P 0 0 0
IV.MRLC.HHZ. 2011-05-19T20:17:56.33 0.3 undecidable manual P 0 0 0
IV.MSCL.HHZ. 2011-05-19T20:17:54.00 0.3 undecidable manual P 0 0 0
IV.JOPP.HHZ. 2011-05-19T20:17:52.91 0.3 undecidable manual P 0 0 0
IV.SCHR.EHZ. 2011-05-19T20:17:50.33 0.3 undecidable manual P 0 0 0
IV.SALB.HHZ. 2011-05-19T20:17:46.99 0.3 undecidable manual P 0 0 0
IV.SERS.HHE. 2011-05-19T20:17:44.02 10.0 undecidable manual P 0 0 0
IV.NOCI.HHE. 2011-05-19T20:17:39.99 0.3 undecidable manual P 0 0 0
IV.MESG.HHN. 2011-05-19T20:17:21.89 10.0 undecidable manual P 0 0 0
MN.CUC.HHN. 2011-05-19T20:17:02.21 10.0 undecidable manual P 0 0 0
Ampiezza e Magnitudo per ciascuna stazione
SCNL mag Generic_amplitude Period Type Category Unit Time_window_reference
IV.NOCI.HHN. ML:0.0 0.0005 1.4 AML other m 2011-05-19T20:17:39.99
IV.NOCI.HHE. ML:0.0 0.0005 1.4 AML other m 2011-05-19T20:17:39.99
IV.SERS.HHN. ML:0.0 0.0005 1.9 AML other m 2011-05-19T20:17:44.02
IV.SERS.HHE. ML:0.0 0.0005 1.9 AML other m 2011-05-19T20:17:44.02
IV.SALB.HHN. ML:0.0 0.00065 1.6 AML other m 2011-05-19T20:17:46.99
IV.SALB.HHE. ML:0.0 0.00065 1.6 AML other m 2011-05-19T20:17:46.99
IV.SCHR.EHN. ML:0.0 0.0006 1.1 AML other m 2011-05-19T20:17:50.33
IV.SCHR.EHE. ML:0.0 0.0006 1.1 AML other m 2011-05-19T20:17:50.33
IV.JOPP.HHN. ML:0.0 0.00145 2.7 AML other m 2011-05-19T20:17:52.91
IV.JOPP.HHE. ML:0.0 0.00145 2.7 AML other m 2011-05-19T20:17:52.91
IV.MSCL.HHN. ML:0.0 0.0012 1.4 AML other m 2011-05-19T20:17:54.00
IV.MSCL.HHE. ML:0.0 0.0012 1.4 AML other m 2011-05-19T20:17:54.00
IV.MRLC.HHN. ML:0.0 0.00065 1.2 AML other m 2011-05-19T20:17:56.33
IV.MRLC.HHE. ML:0.0 0.00065 1.2 AML other m 2011-05-19T20:17:56.33
IV.SGTA.HHN. ML:0.0 0.0009 1.1 AML other m 2011-05-19T20:17:58.22
IV.SGTA.HHE. ML:0.0 0.0009 1.1 AML other m 2011-05-19T20:17:58.22
IV.MPNC.HHN. ML:0.0 0.00075 1.1 AML other m 2011-05-19T20:17:58.51
IV.MPNC.HHE. ML:0.0 0.00075 1.1 AML other m 2011-05-19T20:17:58.51
IV.CAFE.HHN. ML:0.0 0.001 1.8 AML other m 2011-05-19T20:17:59.37
IV.CAFE.HHE. ML:0.0 0.001 1.8 AML other m 2011-05-19T20:17:59.37
IV.MMME.HHN. ML:0.0 0.00035499999999999996 1.1 AML other m 2011-05-19T20:18:00.32
IV.MMME.HHE. ML:0.0 0.00035499999999999996 1.1 AML other m 2011-05-19T20:18:00.32
IV.MOCO.HHN. ML:0.0 0.00085 1.1 AML other m 2011-05-19T20:18:00.99
IV.MOCO.HHE. ML:0.0 0.00085 1.1 AML other m 2011-05-19T20:18:00.99
IV.NOV.HHN. ML:0.0 0.00065 1.1 AML other m 2011-05-19T20:18:01.48
IV.NOV.HHE. ML:0.0 0.00065 1.1 AML other m 2011-05-19T20:18:01.48
IV.IVPL.HHN. ML:0.0 0.0025 1.2 AML other m 2011-05-19T20:18:01.58
IV.IVPL.HHE. ML:0.0 0.0025 1.2 AML other m 2011-05-19T20:18:01.58
IV.HAVL.HHN. ML:0.0 0.00049 1.6 AML other m 2011-05-19T20:18:02.96
IV.HAVL.HHE. ML:0.0 0.00049 1.6 AML other m 2011-05-19T20:18:02.96
IV.CIGN.HHN. ML:0.0 0.0006 1.6 AML other m 2011-05-19T20:18:03.16
IV.CIGN.HHE. ML:0.0 0.0006 1.6 AML other m 2011-05-19T20:18:03.16
IV.PSB1.HHN. ML:0.0 0.001 1 AML other m 2011-05-19T20:18:03.93
IV.PSB1.HHE. ML:0.0 0.001 1 AML other m 2011-05-19T20:18:03.93
IV.SACR.HHN. ML:0.0 0.00085 1.2 AML other m 2011-05-19T20:18:05.43
IV.SACR.HHE. ML:0.0 0.00085 1.2 AML other m 2011-05-19T20:18:05.43
IV.HMDC.HHN. ML:0.0 0.0005 1.5 AML other m 2011-05-19T20:18:06.75
IV.HMDC.HHE. ML:0.0 0.0005 1.5 AML other m 2011-05-19T20:18:06.75
IV.TRIV.HHN. ML:0.0 0.00075 1.2 AML other m 2011-05-19T20:18:07.55
IV.TRIV.HHE. ML:0.0 0.00075 1.2 AML other m 2011-05-19T20:18:07.55
IV.VAGA.HHN. ML:0.0 0.00095 1.4 AML other m 2011-05-19T20:18:10.11
IV.VAGA.HHE. ML:0.0 0.00095 1.4 AML other m 2011-05-19T20:18:10.11
IV.RAFF.HHN. ML:0.0 0.0007 2.1 AML other m 2011-05-19T20:18:10.54
IV.RAFF.HHE. ML:0.0 0.0007 2.1 AML other m 2011-05-19T20:18:10.54
IV.CERA.HHN. ML:0.0 0.0008 1.4 AML other m 2011-05-19T20:18:13.01
IV.CERA.HHE. ML:0.0 0.0008 1.4 AML other m 2011-05-19T20:18:13.01
IV.TERO.HHN. ML:0.0 0.000365 1.1 AML other m 2011-05-19T20:18:18.67
IV.TERO.HHE. ML:0.0 0.000365 1.1 AML other m 2011-05-19T20:18:18.67
IV.USI.HHN. ML:0.0 0.001 1.2 AML other m 2011-05-19T20:18:19.82
IV.USI.HHE. ML:0.0 0.001 1.2 AML other m 2011-05-19T20:18:19.82
IV.GUAR.HHN. ML:0.0 0.000315 1.2 AML other m 2011-05-19T20:18:20.57
IV.GUAR.HHE. ML:0.0 0.000315 1.2 AML other m 2011-05-19T20:18:20.57
MN.CLTB.HHN. ML:0.0 0.00075 1.1 AML other m 2011-05-19T20:18:23.90
MN.CLTB.HHE. ML:0.0 0.00075 1.1 AML other m 2011-05-19T20:18:23.90
IV.NRCA.HHN. ML:0.0 0.00035999999999999997 1.1 AML other m 2011-05-19T20:18:24.20
IV.NRCA.HHE. ML:0.0 0.00035999999999999997 1.1 AML other m 2011-05-19T20:18:24.20
IV.SNTG.HHN. ML:0.0 0.00027 1.4 AML other m 2011-05-19T20:18:26.65
IV.SNTG.HHE. ML:0.0 0.00027 1.4 AML other m 2011-05-19T20:18:26.65
IV.RMP.HHN. ML:0.0 0.000495 1 AML other m 2011-05-19T20:18:26.70
IV.RMP.HHE. ML:0.0 0.000495 1 AML other m 2011-05-19T20:18:26.70
IV.MA9.HHN. ML:0.0 0.0005 1.2 AML other m 2011-05-19T20:18:28.62
IV.MA9.HHE. ML:0.0 0.0005 1.2 AML other m 2011-05-19T20:18:28.62
IV.FSSB.HHN. ML:0.0 0.00044500000000000003 1.2 AML other m 2011-05-19T20:18:29.06
IV.FSSB.HHE. ML:0.0 0.00044500000000000003 1.2 AML other m 2011-05-19T20:18:29.06
IV.PESA.HHN. ML:0.0 0.0008 1.2 AML other m 2011-05-19T20:18:30.19
IV.PESA.HHE. ML:0.0 0.0008 1.2 AML other m 2011-05-19T20:18:30.19
IV.PIEI.HHN. ML:0.0 0.00023999999999999998 1.4 AML other m 2011-05-19T20:18:31.48
IV.PIEI.HHE. ML:0.0 0.00023999999999999998 1.4 AML other m 2011-05-19T20:18:31.48
IV.MURB.HHN. ML:0.0 0.0009 1.4 AML other m 2011-05-19T20:18:31.78
IV.MURB.HHE. ML:0.0 0.0009 1.4 AML other m 2011-05-19T20:18:31.78
IV.ATTE.HHN. ML:0.0 0.00049 1.5 AML other m 2011-05-19T20:18:32.21
IV.ATTE.HHE. ML:0.0 0.00049 1.5 AML other m 2011-05-19T20:18:32.21
IV.ATPC.HHN. ML:0.0 0.0006 1.1 AML other m 2011-05-19T20:18:32.86
IV.ATPC.HHE. ML:0.0 0.0006 1.1 AML other m 2011-05-19T20:18:32.86
IV.PARC.HHN. ML:0.0 0.000435 1.7 AML other m 2011-05-19T20:18:35.46
IV.PARC.HHE. ML:0.0 0.000435 1.7 AML other m 2011-05-19T20:18:35.46
IV.BADI.EHN. ML:0.0 0.0008 2.1 AML other m 2011-05-19T20:18:35.92
IV.BADI.EHE. ML:0.0 0.0008 2.1 AML other m 2011-05-19T20:18:35.92
IV.LATE.HHN. ML:0.0 0.00115 1.1 AML other m 2011-05-19T20:18:36.33
IV.LATE.HHE. ML:0.0 0.00115 1.1 AML other m 2011-05-19T20:18:36.33
IV.CRE.HHN. ML:0.0 0.00044500000000000003 1.3 AML other m 2011-05-19T20:18:38.45
IV.CRE.HHE. ML:0.0 0.00044500000000000003 1.3 AML other m 2011-05-19T20:18:38.45
IV.ARCI.HHN. ML:0.0 0.0006 1.5 AML other m 2011-05-19T20:18:41.36
IV.ARCI.HHE. ML:0.0 0.0006 1.5 AML other m 2011-05-19T20:18:41.36
IV.FROS.HHN. ML:0.0 0.0007 1 AML other m 2011-05-19T20:18:44.41
IV.FROS.HHE. ML:0.0 0.0007 1 AML other m 2011-05-19T20:18:44.41
IV.TEOL.HHN. ML:0.0 0.00405 0.94 AML other m 2011-05-19T20:18:46.73
IV.TEOL.HHE. ML:0.0 0.00405 0.94 AML other m 2011-05-19T20:18:46.73
IV.TRIF.HHN. ML:0.0 0.00055 1 AML other m 2011-05-19T20:18:47.93
IV.TRIF.HHE. ML:0.0 0.00055 1 AML other m 2011-05-19T20:18:47.93
IV.FNVD.HHN. ML:0.0 0.0007 1.2 AML other m 2011-05-19T20:18:47.94
IV.FNVD.HHE. ML:0.0 0.0007 1.2 AML other m 2011-05-19T20:18:47.94
NI.AGOR.HHN. ML:0.0 0.00020999999999999998 1 AML other m 2011-05-19T20:18:48.24
NI.AGOR.HHE. ML:0.0 0.00020999999999999998 1 AML other m 2011-05-19T20:18:48.24
IV.SASS.HHN. ML:0.0 0.00027 1.5 AML other m 2011-05-19T20:18:48.76
IV.SASS.HHE. ML:0.0 0.00027 1.5 AML other m 2011-05-19T20:18:48.76
IV.CASP.HHN. ML:0.0 0.0005 1.3 AML other m 2011-05-19T20:18:48.87
IV.CASP.HHE. ML:0.0 0.0005 1.3 AML other m 2011-05-19T20:18:48.87
IV.ROVR.HHN. ML:0.0 0.0006 1 AML other m 2011-05-19T20:18:52.66
IV.ROVR.HHE. ML:0.0 0.0006 1 AML other m 2011-05-19T20:18:52.66
IV.BDI.HHN. ML:0.0 0.00034 1.8 AML other m 2011-05-19T20:18:54.00
IV.BDI.HHE. ML:0.0 0.00034 1.8 AML other m 2011-05-19T20:18:54.00
GU.MAIM.HHN. ML:0.0 0.000345 1.1 AML other m 2011-05-19T20:18:54.11
GU.MAIM.HHE. ML:0.0 0.000345 1.1 AML other m 2011-05-19T20:18:54.11
IV.NOVE.EHN. ML:0.0 0.0013 1.3 AML other m 2011-05-19T20:18:54.84
IV.NOVE.EHE. ML:0.0 0.0013 1.3 AML other m 2011-05-19T20:18:54.84
MN.VLC.HHN. ML:0.0 0.00039 1.3 AML other m 2011-05-19T20:18:56.46
MN.VLC.HHE. ML:0.0 0.00039 1.3 AML other m 2011-05-19T20:18:56.46
IV.MAGA.HHN. ML:0.0 0.0018 0.83 AML other m 2011-05-19T20:18:57.76
IV.MAGA.HHE. ML:0.0 0.0018 0.83 AML other m 2011-05-19T20:18:57.76
IV.SALO.HHN. ML:0.0 0.0011 1.1 AML other m 2011-05-19T20:18:58.05
IV.SALO.HHE. ML:0.0 0.0011 1.1 AML other m 2011-05-19T20:18:58.05
IV.ERBM.EHN. ML:0.0 0.00095 1.5 AML other m 2011-05-19T20:18:58.17
IV.ERBM.EHE. ML:0.0 0.00095 1.5 AML other m 2011-05-19T20:18:58.17
IV.PRMA.HHN. ML:0.0 0.0009 1.8 AML other m 2011-05-19T20:18:58.91
IV.PRMA.HHE. ML:0.0 0.0009 1.8 AML other m 2011-05-19T20:18:58.91
IV.PLMA.HHN. ML:0.0 0.000205 3.4 AML other m 2011-05-19T20:18:59.10
IV.PLMA.HHE. ML:0.0 0.000205 3.4 AML other m 2011-05-19T20:18:59.10
IV.GROG.HHN. ML:0.0 0.000275 1.3 AML other m 2011-05-19T20:18:59.90
IV.GROG.HHE. ML:0.0 0.000275 1.3 AML other m 2011-05-19T20:18:59.90
IV.MSSA.HHN. ML:0.0 0.0005 1.1 AML other m 2011-05-19T20:19:03.18
IV.MSSA.HHE. ML:0.0 0.0005 1.1 AML other m 2011-05-19T20:19:03.18
IV.BRMO.HHN. ML:0.0 0.00035 1.3 AML other m 2011-05-19T20:19:04.09
IV.BRMO.HHE. ML:0.0 0.00035 1.3 AML other m 2011-05-19T20:19:04.09
IV.BOB.HHN. ML:0.0 0.0014 1.1 AML other m 2011-05-19T20:19:04.82
IV.BOB.HHE. ML:0.0 0.0014 1.1 AML other m 2011-05-19T20:19:04.82
IV.CTL8.EHN. ML:0.0 0.000475 2 AML other m 2011-05-19T20:19:07.42
IV.CTL8.EHE. ML:0.0 0.000475 2 AML other m 2011-05-19T20:19:07.42
GU.PCP.HHN. ML:0.0 0.00037 1.3 AML other m 2011-05-19T20:19:11.68
GU.PCP.HHE. ML:0.0 0.00037 1.3 AML other m 2011-05-19T20:19:11.68
GU.FINB.HHN. ML:0.0 0.00029 1.4 AML other m 2011-05-19T20:19:12.37
GU.FINB.HHE. ML:0.0 0.00029 1.4 AML other m 2011-05-19T20:19:12.37
IV.QLNO.HHN. ML:0.0 0.000245 1.9 AML other m 2011-05-19T20:19:12.46
IV.QLNO.HHE. ML:0.0 0.000245 1.9 AML other m 2011-05-19T20:19:12.46
IV.VARE.HHN. ML:0.0 0.000475 1.5 AML other m 2011-05-19T20:19:14.08
IV.VARE.HHE. ML:0.0 0.000475 1.5 AML other m 2011-05-19T20:19:14.08
GU.RORO.HHN. ML:0.0 0.000275 1.3 AML other m 2011-05-19T20:19:14.89
GU.RORO.HHE. ML:0.0 0.000275 1.3 AML other m 2011-05-19T20:19:14.89
CH.PLONS.HHN. ML:0.0 0.000415 1.3 AML other m 2011-05-19T20:19:15.57
CH.PLONS.HHE. ML:0.0 0.000415 1.3 AML other m 2011-05-19T20:19:15.57
IV.IMI.HHN. ML:0.0 0.00032 1.9 AML other m 2011-05-19T20:19:16.57
IV.IMI.HHE. ML:0.0 0.00032 1.9 AML other m 2011-05-19T20:19:16.57
IV.MONC.HHN. ML:0.0 0.00085 1.5 AML other m 2011-05-19T20:19:20.11
IV.MONC.HHE. ML:0.0 0.00085 1.5 AML other m 2011-05-19T20:19:20.11
GU.TRAV.HHN. ML:0.0 0.00027 2.1 AML other m 2011-05-19T20:19:22.68
GU.TRAV.HHE. ML:0.0 0.00027 2.1 AML other m 2011-05-19T20:19:22.68
GU.PZZ.HHN. ML:0.0 0.000265 1.3 AML other m 2011-05-19T20:19:24.20
GU.PZZ.HHE. ML:0.0 0.000265 1.3 AML other m 2011-05-19T20:19:24.20
IV.MRGE.HHN. ML:0.0 0.00075 4.5 AML other m 2011-05-19T20:19:31.36
IV.MRGE.HHE. ML:0.0 0.00075 4.5 AML other m 2011-05-19T20:19:31.36
MN.CUC.HHN. Md:0.0 11 END duration s
CH.MUGIO.HHE. Md:0.0 17 END duration s
IV.BLLA.EHE. Md:0.0 31 END duration s
TDMT - Time Domain Moment Tensor
Meccanismi di sorgente sismica nell'area
Download
Tipo Descrizione Link
QuakeML - small Event, Origin, FocalMechanism Download
QuakeML - full Event, Origin, FocalMechanism, Amplitude, Arrival, Pick, Station Magnitude Download